Wind_Speed
5 4 3 3 3 2 3 4 4 5 5 5 5 5 5 6 7 8 9 9 10 10 10 10 9 9 10 10 9 9 9 9 9 9 8 8 7 7 7 7 7 7 7 7 7 7 7 7 7
5 4 4 3 3 3 5 5 6 6 6 6 6 6 7 8 9 9 10 10 11 11 11 11 11 10 10 10 10 10 10 10 9 9 9 9 8 8 8 8 8 8 8 8 9 8 8 8 8
5 4 4 4 4 5 6 6 6 7 7 6 7 7 9 9 10 11 12 12 13 12 12 12 11 11 11 11 11 11 11 11 10 10 10 10 9 9 10 10 10 10 10 10 10 10 10 10 10
5 4 4 4 5 5 6 6 6 7 7 8 8 9 10 11 11 12 13 13 12 12 12 13 12 12 11 11 11 11 11 12 11 11 11 11 11 11 11 11 12 12 12 11 11 11 11 12 12
6 5 4 4 5 6 6 6 6 7 8 8 9 10 11 12 12 13 13 13 13 13 14 14 13 13 12 12 12 12 13 12 12 12 12 12 12 12 12 12 12 13 13 13 13 13 13 13 13
6 6 5 5 6 7 6 6 7 8 9 9 10 10 11 12 12 13 14 14 14 14 15 15 15 14 13 13 13 13 14 13 13 13 13 13 13 13 13 13 14 14 14 15 15 15 15 14 14
6 6 6 6 6 7 7 7 8 9 9 9 10 11 11 12 13 13 14 14 15 15 16 15 15 14 14 14 14 14 14 14 14 14 14 14 14 14 15 15 15 15 15 16 16 16 15 15 15
7 7 6 6 6 7 7 8 8 10 10 10 10 11 11 13 13 14 15 15 15 16 16 15 15 15 14 15 15 15 14 14 15 14 14 14 14 14 15 15 16 16 16 16 16 17 16 16 17
7 7 7 7 6 7 7 8 9 9 10 10 11 12 12 13 14 15 15 15 15 15 15 15 14 14 15 15 15 15 15 14 14 14 15 15 15 15 15 15 16 17 17 17 17 17 17 17 17
7 8 8 7 6 7 7 8 9 10 11 11 12 13 13 13 14 15 15 15 14 14 15 14 14 15 16 15 16 15 15 15 15 15 15 15 16 16 16 17 17 17 18 18 18 18 17 18 19
7 7 7 7 7 7 8 9 10 11 12 12 13 13 13 13 14 15 15 15 14 14 15 15 15 15 16 16 16 16 15 15 15 15 16 16 17 17 17 18 19 19 19 19 19 20 19 20 20
7 7 7 7 7 8 9 9 11 12 13 13 13 14 13 14 14 15 15 15 15 16 16 16 16 16 16 16 17 17 16 16 16 16 17 17 18 19 19 19 19 20 20 20 21 21 21 20 21
7 7 7 6 7 8 9 10 11 12 13 14 13 13 14 15 15 15 15 16 16 16 15 15 16 16 17 17 16 16 16 17 17 17 18 19 19 19 20 20 21 22 22 22 21 21 21 21 22
7 7 8 8 8 9 10 11 12 12 13 13 13 13 15 14 15 15 16 17 16 16 16 15 15 15 16 16 16 17 17 18 19 19 20 20 20 20 21 22 22 22 23 23 24 25 24 23 23
7 7 8 9 10 10 11 12 12 12 13 14 14 14 14 14 15 15 16 17 16 16 15 15 15 16 16 16 17 18 19 19 19 20 21 21 20 21 22 22 22 22 23 24 24 25 26 25 25
7 7 8 9 10 10 11 12 12 12 13 14 14 15 15 15 15 16 17 17 16 16 16 16 15 15 16 16 18 19 19 20 20 20 21 21 21 22 22 22 22 22 23 24 25 25 26 26 25
8 8 8 9 10 10 11 13 13 13 13 14 15 15 16 16 16 17 18 18 17 16 16 16 16 16 17 17 19 19 19 19 20 20 20 20 21 21 22 23 23 23 23 24 25 26 26 26 26
8 8 8 10 10 10 11 12 13 13 13 14 15 16 16 17 17 17 18 18 17 17 17 17 17 17 17 17 17 18 19 20 21 21 21 22 21 21 22 22 23 22 23 23 24 26 26 26 27
9 9 9 10 11 11 11 11 12 12 13 14 15 16 16 17 17 17 18 18 17 18 18 16 16 16 17 17 17 18 19 20 21 21 21 21 21 21 21 22 22 22 22 22 22 23 24 25 26
10 10 10 11 11 12 12 12 12 12 13 15 16 16 17 17 17 17 17 18 18 17 17 16 16 17 17 17 18 19 20 21 21 21 21 21 21 22 22 22 21 21 21 21 22 22 22 24 26
10 10 11 12 11 12 12 12 12 13 13 14 15 16 17 17 17 18 18 18 18 17 17 17 17 17 18 18 19 20 20 20 20 20 20 21 22 23 23 21 21 22 22 22 22 22 22 23 25
11 11 11 11 11 12 11 12 13 14 14 14 15 15 16 17 18 18 18 18 18 18 18 18 18 18 19 19 19 20 19 20 20 19 19 20 20 21 21 21 22 22 22 23 22 22 23 23 24
10 11 11 11 11 12 11 12 13 13 14 15 15 16 17 17 18 18 18 18 17 18 18 18 19 19 19 20 20 20 20 19 19 20 20 20 20 20 21 21 22 22 22 22 23 22 22 23 24
10 10 10 11 12 12 11 12 13 13 15 15 16 17 17 18 18 19 18 18 18 19 19 19 19 19 19 20 19 19 19 19 20 20 20 20 20 20 21 21 22 22 22 22 22 22 23 23 23
9 9 10 11 11 12 13 12 13 14 15 15 16 17 18 19 19 19 18 18 19 19 19 18 18 18 18 18 18 19 19 19 19 20 20 20 20 20 21 21 21 21 22 22 21 22 23 23 23
9 9 9 10 11 12 13 13 13 14 15 16 16 17 18 19 19 19 18 18 18 18 18 17 18 17 17 18 18 18 18 18 18 19 19 20 20 20 20 20 20 20 20 20 21 21 23 23 24
10 10 10 11 11 11 13 14 14 15 16 16 16 16 18 18 18 18 18 17 16 17 17 17 18 18 17 18 18 18 18 18 18 19 20 20 20 20 19 20 20 20 20 20 21 22 22 23 24
10 10 10 10 11 11 13 14 14 14 16 16 16 17 17 17 18 18 17 16 16 17 17 17 18 18 17 18 18 18 18 18 19 19 19 19 19 19 19 19 20 20 20 20 21 21 22 22 23
10 10 10 10 10 11 13 14 14 15 16 16 16 17 17 16 17 17 17 16 17 17 18 17 18 17 17 18 18 18 18 18 18 18 18 19 19 19 19 19 19 19 19 20 20 21 22 23 23
11 11 11 11 11 12 13 14 14 14 15 16 16 16 16 15 16 16 16 16 17 17 17 17 18 18 18 18 18 18 18 17 18 18 18 19 19 19 18 19 18 19 19 19 19 20 21 22 23
Wind_Direction
211 217 219 218 218 225 242 265 280 285 291 301 308 315 319 320 316 310 312 311 308 306 302 297 296 300 301 297 288 285 279 274 268 266 267 264 257 255 257 255 255 249 247 251 253 253 253 254 254
213 222 224 218 198 218 253 264 272 281 293 300 303 306 309 308 308 306 305 304 303 301 300 295 296 297 298 296 289 284 280 272 267 264 264 265 261 257 256 258 258 256 250 249 250 252 253 252 252
218 220 225 216 205 218 250 261 273 280 289 292 298 301 305 305 303 300 299 300 297 295 296 293 294 293 292 292 287 281 278 274 267 263 262 262 262 260 257 257 256 257 255 253 252 252 253 253 251
215 220 224 225 229 235 254 267 277 284 292 294 298 301 303 302 300 300 298 299 296 291 291 291 291 288 287 287 282 278 276 272 267 264 261 260 260 258 258 259 258 256 256 257 255 254 257 256 254
215 219 222 230 244 250 258 267 279 290 296 300 301 301 303 304 302 302 299 297 297 292 288 287 286 284 282 281 280 277 273 269 266 264 259 258 257 257 256 259 263 261 255 254 255 254 255 253 253
223 220 215 230 251 259 266 279 290 292 297 300 300 301 302 302 300 299 299 297 294 291 288 288 281 277 275 276 277 276 270 267 268 266 261 260 259 258 258 259 262 262 258 254 252 254 254 252 251
214 211 217 234 250 261 272 286 294 296 296 300 302 302 304 303 302 302 301 297 293 290 288 287 281 278 276 276 277 275 268 265 265 264 264 264 264 261 260 262 263 262 261 258 254 258 256 253 250
213 215 226 237 249 263 275 286 294 295 293 298 302 306 307 307 306 308 305 299 294 290 288 287 286 282 276 274 274 274 268 264 261 263 264 266 268 264 262 264 264 264 263 259 258 260 256 255 252
216 223 234 239 250 268 273 286 296 297 296 299 304 307 310 309 309 308 307 303 298 291 289 285 285 280 274 271 271 273 269 266 264 262 264 267 268 267 265 265 264 263 261 261 262 260 257 255 253
219 225 238 245 258 270 282 293 301 303 302 303 304 306 309 308 309 309 307 303 299 294 290 283 279 276 273 270 268 269 267 265 263 265 267 267 268 270 268 265 264 262 260 260 261 259 259 258 256
229 233 242 253 264 279 294 304 305 309 308 306 307 308 309 310 313 312 309 304 299 295 289 282 279 275 273 268 268 266 265 265 264 266 268 268 268 271 267 267 265 264 263 261 259 257 257 259 257
237 241 251 266 277 288 297 305 307 308 311 309 308 309 312 315 317 316 311 305 300 296 292 286 278 276 274 269 267 265 266 267 269 270 271 272 272 271 269 266 266 263 263 262 261 260 258 260 259
238 250 258 270 282 295 301 304 309 312 313 311 310 311 313 313 315 318 316 308 303 298 296 292 284 279 274 272 271 271 271 271 273 274 274 273 273 271 270 269 266 264 263 262 261 261 261 261 262
241 257 264 273 283 293 302 305 307 311 311 311 314 315 314 310 312 312 312 312 308 301 296 293 288 280 279 277 273 272 272 271 273 273 273 273 274 274 273 271 271 266 264 263 262 262 263 263 265
249 259 269 276 286 294 304 307 306 311 312 311 311 314 315 312 313 312 310 308 308 303 296 295 291 287 283 278 278 277 274 276 277 276 277 277 275 275 274 272 272 271 266 263 263 263 263 262 263
250 265 276 282 289 299 306 307 309 310 311 310 312 314 313 314 312 309 309 309 307 303 299 298 295 288 284 281 282 282 279 278 279 278 278 277 276 274 272 271 271 271 269 265 264 264 263 262 262
259 270 280 291 294 299 304 308 309 307 309 312 315 317 314 312 308 308 309 307 305 307 306 302 295 290 288 286 284 282 281 280 280 280 280 279 278 274 273 272 272 272 271 268 265 264 263 262 260
259 264 277 288 293 301 306 310 307 305 307 311 314 316 318 315 311 310 310 308 309 311 309 306 301 293 291 290 289 287 285 283 281 282 281 280 278 277 275 277 275 274 271 270 269 266 263 260 259
264 270 280 291 297 305 308 311 310 305 305 308 312 316 317 315 313 313 313 311 311 310 308 305 301 296 293 291 290 292 291 287 284 283 285 284 282 279 278 278 277 276 274 271 271 268 264 261 260
263 272 281 290 295 301 306 310 312 311 308 309 311 316 318 317 314 315 314 313 313 311 309 306 303 300 296 294 293 293 294 292 287 285 287 287 285 282 279 279 277 276 274 271 269 267 265 263 262
268 272 281 288 294 300 306 312 312 313 313 313 315 317 320 319 317 315 314 314 312 314 313 309 306 304 300 298 295 294 294 292 289 286 288 287 285 282 280 279 278 278 277 276 272 268 265 264 263
272 273 280 290 297 304 307 312 313 313 315 316 319 320 323 322 319 318 317 316 314 314 313 310 308 306 303 301 298 295 294 293 290 288 289 290 291 287 283 281 278 276 277 276 273 269 266 264 263
279 279 282 287 294 303 307 307 311 313 314 317 320 323 325 326 324 321 319 319 318 316 315 312 309 309 306 304 302 298 295 294 291 290 290 291 292 290 286 283 280 277 277 275 273 272 268 266 264
282 282 283 289 296 299 301 303 308 313 314 317 320 324 326 326 324 322 322 321 321 320 317 315 313 312 310 306 305 301 297 296 295 294 293 293 294 292 288 286 282 279 277 275 273 271 268 266 265
278 287 298 302 300 294 297 296 304 310 313 317 321 323 323 324 324 323 322 320 320 320 319 318 316 315 312 311 310 305 301 300 299 297 295 294 295 293 290 288 285 282 278 275 273 270 268 267 265
281 281 285 288 289 291 298 297 304 307 311 316 319 321 322 323 324 325 324 321 319 321 321 321 321 320 317 317 316 312 308 305 303 301 298 297 297 297 295 291 288 283 278 275 273 271 268 266 264
274 277 281 287 292 298 300 302 303 304 309 314 316 318 320 323 324 327 329 327 325 325 325 323 323 323 320 318 317 314 310 307 305 304 303 301 299 299 298 294 288 283 278 276 274 272 270 266 265
271 275 280 289 297 299 303 306 310 311 312 314 317 320 321 322 325 330 334 331 329 329 326 324 325 325 322 319 317 314 311 310 309 309 308 306 304 302 302 301 294 287 279 276 274 272 271 269 268
277 282 286 288 291 297 298 298 305 308 312 314 318 320 321 322 325 331 331 331 332 329 328 328 328 325 321 318 317 315 313 313 313 312 312 312 309 307 304 303 300 293 285 278 274 274 272 270 269
280 284 288 293 298 300 299 299 302 306 310 313 317 318 319 321 325 331 336 334 332 330 330 330 328 325 321 321 319 317 317 318 318 316 313 312 310 307 305 304 302 299 294 286 278 273 272 271 269
Height
5888 5888 5889 5891 5893 5894 5894 5893 5892 5891 5891 5890 5890 5889 5888 5887 5887 5888 5885 5882 5881 5880 5879 5879 5878 5877 5877 5876 5875 5875 5874 5874 5873 5873 5873 5873 5872 5872 5872 5872 5872 5872 5872 5873 5873 5874 5874 5875 5875
5887 5887 5889 5890 5892 5894 5893 5891 5890 5890 5889 5889 5888 5887 5886 5885 5884 5883 5881 5880 5879 5878 5877 5877 5876 5875 5874 5874 5873 5873 5872 5871 5871 5871 5870 5870 5870 5870 5870 5870 5870 5870 5870 5870 5871 5871 5872 5872 5873
5886 5886 5888 5889 5891 5892 5891 5889 5888 5888 5887 5887 5886 5885 5884 5882 5881 5880 5879 5878 5876 5876 5875 5874 5873 5873 5872 5871 5870 5870 5869 5869 5868 5868 5868 5868 5868 5867 5867 5867 5867 5867 5868 5868 5868 5868 5869 5870 5870
5885 5886 5888 5889 5889 5889 5889 5888 5887 5886 5885 5884 5883 5882 5881 5880 5879 5877 5876 5874 5873 5872 5872 5871 5870 5870 5869 5868 5867 5867 5866 5866 5865 5865 5865 5865 5864 5865 5865 5865 5865 5865 5865 5865 5866 5866 5866 5867 5867
5883 5885 5887 5888 5887 5887 5887 5886 5885 5884 5883 5882 5881 5880 5879 5877 5876 5874 5873 5872 5870 5869 5868 5868 5867 5866 5865 5865 5864 5863 5863 5862 5862 5862 5861 5861 5861 5861 5861 5862 5862 5862 5862 5862 5863 5863 5863 5864 5864
5883 5884 5886 5887 5886 5885 5885 5884 5883 5882 5881 5880 5879 5878 5876 5875 5873 5872 5870 5869 5868 5866 5865 5864 5863 5863 5861 5861 5861 5860 5859 5859 5859 5858 5858 5858 5858 5858 5858 5858 5858 5858 5858 5859 5859 5860 5861 5861 5861
5882 5883 5884 5885 5884 5884 5883 5882 5881 5880 5879 5878 5877 5875 5874 5872 5870 5868 5867 5865 5864 5862 5861 5860 5859 5858 5857 5857 5857 5856 5856 5856 5855 5855 5855 5855 5854 5854 5854 5854 5854 5854 5855 5855 5856 5856 5857 5857 5857
5880 5882 5882 5883 5883 5882 5881 5880 5879 5878 5877 5875 5874 5872 5871 5869 5867 5865 5863 5862 5860 5858 5857 5856 5855 5854 5854 5853 5853 5853 5852 5852 5851 5851 5851 5851 5851 5850 5850 5850 5851 5851 5851 5851 5852 5853 5853 5854 5854
5878 5881 5881 5881 5881 5880 5879 5879 5878 5876 5874 5872 5871 5869 5867 5865 5863 5862 5860 5858 5856 5854 5853 5852 5852 5851 5850 5850 5849 5849 5848 5848 5847 5848 5848 5848 5847 5847 5846 5846 5846 5846 5847 5847 5848 5849 5849 5849 5850
5877 5879 5879 5879 5879 5878 5877 5876 5875 5873 5872 5870 5868 5866 5864 5862 5860 5858 5856 5854 5852 5851 5849 5848 5848 5847 5846 5846 5845 5845 5845 5844 5844 5844 5844 5844 5843 5843 5843 5843 5842 5842 5842 5843 5843 5844 5845 5845 5846
5875 5876 5877 5876 5876 5876 5875 5874 5873 5871 5869 5868 5866 5864 5862 5859 5857 5855 5853 5851 5849 5847 5845 5844 5844 5843 5842 5842 5842 5842 5841 5841 5841 5841 5840 5840 5840 5839 5839 5839 5839 5838 5838 5838 5839 5839 5840 5841 5841
5874 5874 5875 5875 5875 5874 5873 5872 5871 5869 5867 5865 5863 5861 5859 5857 5854 5852 5850 5847 5845 5844 5842 5841 5839 5838 5838 5838 5838 5838 5838 5838 5838 5837 5837 5836 5836 5835 5835 5834 5834 5834 5834 5834 5834 5834 5835 5836 5837
5873 5873 5873 5873 5873 5872 5871 5870 5869 5867 5865 5863 5860 5858 5856 5854 5852 5849 5847 5844 5842 5840 5839 5838 5836 5835 5835 5835 5834 5835 5835 5835 5834 5833 5833 5832 5831 5830 5830 5830 5830 5829 5829 5829 5829 5830 5830 5831 5830
5871 5871 5871 5871 5871 5870 5869 5868 5867 5865 5863 5860 5858 5856 5853 5851 5849 5847 5844 5842 5839 5837 5836 5834 5832 5832 5832 5831 5831 5831 5831 5830 5830 5829 5828 5827 5826 5826 5825 5825 5825 5824 5824 5824 5824 5825 5825 5825 5825
5870 5870 5870 5870 5869 5868 5868 5867 5864 5862 5860 5858 5856 5854 5851 5848 5846 5844 5842 5839 5837 5835 5833 5831 5829 5829 5829 5828 5828 5827 5827 5826 5825 5824 5823 5822 5821 5821 5820 5819 5819 5819 5818 5818 5818 5819 5819 5820 5820
5869 5869 5869 5869 5867 5866 5867 5865 5863 5860 5858 5856 5854 5851 5849 5846 5843 5841 5839 5836 5834 5832 5830 5828 5827 5826 5825 5824 5824 5823 5822 5821 5821 5820 5818 5817 5816 5815 5814 5814 5813 5813 5812 5812 5812 5813 5813 5814 5814
5867 5868 5868 5867 5866 5865 5864 5862 5860 5858 5856 5854 5851 5849 5846 5844 5841 5838 5836 5834 5832 5830 5827 5825 5824 5822 5821 5821 5820 5819 5818 5817 5816 5815 5813 5812 5811 5810 5808 5808 5807 5806 5806 5806 5806 5806 5807 5807 5807
5867 5866 5866 5865 5864 5863 5862 5860 5857 5855 5853 5851 5849 5846 5844 5841 5838 5835 5833 5831 5829 5826 5824 5822 5821 5819 5818 5817 5816 5814 5813 5812 5811 5810 5808 5807 5806 5805 5803 5802 5801 5800 5800 5799 5799 5800 5800 5800 5800
5864 5864 5864 5863 5862 5861 5859 5857 5855 5853 5851 5849 5846 5843 5841 5838 5835 5833 5830 5828 5826 5823 5821 5819 5817 5815 5814 5812 5811 5810 5808 5807 5805 5804 5803 5801 5800 5798 5798 5797 5796 5794 5793 5793 5793 5793 5793 5793 5793
5862 5862 5862 5861 5860 5859 5857 5855 5853 5850 5848 5846 5844 5841 5838 5835 5832 5830 5827 5825 5822 5819 5817 5815 5813 5811 5809 5808 5806 5805 5803 5801 5800 5798 5797 5796 5794 5793 5791 5791 5790 5789 5787 5786 5786 5786 5786 5787 5787
5859 5859 5859 5858 5857 5856 5854 5853 5850 5848 5845 5843 5841 5838 5835 5832 5830 5827 5824 5821 5818 5816 5813 5811 5809 5806 5805 5803 5801 5800 5798 5796 5795 5793 5792 5790 5788 5787 5786 5785 5784 5783 5781 5780 5780 5780 5779 5780 5780
5856 5856 5856 5855 5854 5853 5853 5851 5848 5845 5843 5841 5838 5836 5833 5830 5827 5824 5821 5818 5815 5812 5809 5807 5804 5802 5800 5798 5796 5794 5793 5791 5790 5788 5786 5785 5782 5781 5779 5778 5778 5776 5775 5774 5773 5773 5773 5773 5773
5853 5853 5853 5852 5852 5851 5849 5848 5847 5843 5841 5838 5836 5833 5830 5827 5824 5820 5817 5814 5811 5808 5805 5802 5800 5797 5795 5793 5791 5789 5787 5786 5784 5783 5781 5779 5777 5775 5774 5772 5771 5770 5769 5768 5767 5767 5767 5766 5767
5851 5851 5850 5850 5849 5848 5847 5846 5844 5841 5838 5836 5833 5830 5827 5824 5821 5817 5814 5810 5807 5804 5801 5798 5795 5793 5790 5788 5786 5784 5782 5780 5779 5777 5776 5774 5772 5770 5768 5766 5764 5763 5762 5761 5761 5760 5760 5759 5759
5848 5849 5849 5848 5847 5846 5844 5843 5842 5838 5835 5833 5830 5827 5824 5821 5818 5814 5811 5807 5804 5801 5798 5795 5792 5789 5786 5783 5781 5779 5777 5775 5774 5772 5770 5769 5767 5764 5762 5760 5758 5756 5755 5754 5754 5753 5753 5752 5752
5846 5847 5848 5848 5847 5844 5841 5840 5839 5835 5833 5830 5828 5825 5821 5818 5814 5811 5807 5804 5801 5798 5795 5792 5788 5785 5783 5780 5777 5775 5773 5771 5769 5767 5765 5763 5761 5758 5756 5754 5752 5750 5749 5748 5747 5746 5746 5746 5746
5843 5843 5843 5843 5842 5841 5839 5837 5835 5832 5830 5827 5825 5822 5819 5815 5812 5808 5805 5801 5798 5795 5792 5789 5786 5782 5779 5777 5774 5772 5769 5767 5765 5762 5760 5757 5755 5752 5750 5747 5746 5744 5742 5741 5740 5739 5738 5738 5738
5841 5840 5840 5839 5839 5838 5837 5834 5832 5829 5827 5824 5821 5819 5816 5812 5809 5806 5802 5799 5796 5793 5790 5786 5783 5779 5776 5774 5771 5768 5765 5763 5760 5757 5755 5752 5749 5747 5744 5741 5738 5736 5735 5734 5733 5732 5731 5731 5731
5838 5837 5836 5836 5835 5835 5834 5834 5829 5826 5824 5821 5818 5815 5812 5810 5807 5803 5800 5797 5793 5790 5787 5784 5780 5777 5774 5771 5768 5765 5762 5759 5756 5753 5751 5748 5745 5742 5739 5736 5732 5730 5728 5726 5725 5725 5724 5724 5724
5835 5834 5833 5833 5832 5831 5830 5831 5825 5823 5820 5818 5815 5812 5810 5807 5804 5801 5798 5794 5791 5787 5784 5781 5778 5774 5771 5768 5764 5761 5758 5755 5752 5750 5747 5743 5740 5737 5734 5731 5727 5724 5722 5720 5719 5718 5718 5717 5717